sat.trackr.live / text

‹ back to catalog

PIAST-S2

NORAD 66757 · 2025-276CV

PAYLOAD ACTIVE UNKNOWN

§ Identity

Operator
Country
POL
Launch date
2025-11-28
Launch site
AFWTR
Launch vehicle
Mass (kg)
RCS (m²)

External: N2YO · Heavens-Above · Gunter

§ Orbital elements

Epoch: 2026-05-25T03:32:45.415104Z

Period
94.72 min
Inclination
97.4218°
Eccentricity
0.0002695
Mean motion
15.20215452 rev/d
Perigee alt
503.3 km
Apogee alt
507.0 km
Semi-major
6,883.3 km
B*
2.5038e-4
RAAN
219.2898°
Arg perigee
67.0406°
Mean anomaly
293.1113°
Rev number
2,693

§ Raw data

PIAST-S21 66757U 25276CV  26145.14774786  .00005359  00000+0  25038-3 0  99972 66757  97.4218 219.2898 0002695  67.0406 293.1113 15.20215452 26935

JSON: /api/v1/satellites/66757 · /tle

For live sub-satellite position, see the globe view (requires WebGL).

§ Visibility from observer

Set your observer location to see the next 7 days of passes ≥ 10°. The values pass through the URL so the page stays shareable.

No JS? Fill the form by hand. The geolocation button needs JavaScript.